Time,TemperatureF,DewpointF,PressureIn,WindDirection,WindDirectionDegrees,WindSpeedMPH,WindSpeedGustMPH,Humidity,HourlyPrecipIn,Conditions,Clouds,dailyrainin,SolarRadiationWatts/m^2,SoftwareType,DateUTC
2013-01-21 00:04:00,34.0,25.0,30.33,WNW,300,2.0,4.0,69,0.00,,,0.00,0.000000,,2013-01-21 05:04:00,
2013-01-21 00:12:00,34.0,25.0,30.33,WNW,300,2.0,4.0,69,0.00,,,0.00,0.000000,,2013-01-21 05:12:00,
2013-01-21 00:43:00,33.0,29.0,30.32,SW,223,1.0,3.0,85,0.00,,,0.00,0.000000,,2013-01-21 05:43:00,
2013-01-21 00:53:00,33.0,29.0,30.32,SW,223,1.0,3.0,85,0.00,,,0.00,0.000000,,2013-01-21 05:53:00,
2013-01-21 01:03:00,33.0,29.0,30.32,SW,223,1.0,3.0,85,0.00,,,0.00,0.000000,,2013-01-21 06:03:00,
2013-01-21 01:13:00,33.0,29.0,30.32,SW,223,1.0,3.0,85,0.00,,,0.00,0.000000,,2013-01-21 06:13:00,
2013-01-21 01:33:00,32.0,28.0,30.31,SSE,160,2.0,3.0,85,0.00,,,0.00,0.000000,,2013-01-21 06:33:00,
2013-01-21 01:43:00,32.0,28.0,30.31,SSE,160,2.0,3.0,85,0.00,,,0.00,0.000000,,2013-01-21 06:43:00,
2013-01-21 01:53:00,32.0,28.0,30.31,SSE,160,2.0,3.0,85,0.00,,,0.00,0.000000,,2013-01-21 06:53:00,
2013-01-21 02:03:00,32.0,28.0,30.31,SSE,160,2.0,3.0,85,0.00,,,0.00,0.000000,,2013-01-21 07:03:00,
2013-01-21 02:13:00,32.0,28.0,30.31,SSE,160,2.0,3.0,85,0.00,,,0.00,0.000000,,2013-01-21 07:13:00,
2013-01-21 02:33:00,30.0,28.0,30.31,SE,126,1.0,3.0,94,0.00,,,0.00,0.000000,,2013-01-21 07:33:00,
2013-01-21 02:43:00,30.0,28.0,30.31,SE,126,1.0,3.0,94,0.00,,,0.00,0.000000,,2013-01-21 07:43:00,
2013-01-21 02:53:00,30.0,28.0,30.31,SE,126,1.0,3.0,94,0.00,,,0.00,0.000000,,2013-01-21 07:53:00,
2013-01-21 03:03:00,30.0,28.0,30.31,SE,126,1.0,3.0,94,0.00,,,0.00,0.000000,,2013-01-21 08:03:00,
2013-01-21 03:14:00,30.0,28.0,30.31,SE,126,1.0,3.0,94,0.00,,,0.00,0.000000,,2013-01-21 08:14:00,
2013-01-21 03:43:00,29.0,28.0,30.30,NE,44,5.0,6.0,96,0.00,,,0.00,0.000000,,2013-01-21 08:43:00,
2013-01-21 03:53:00,29.0,28.0,30.30,NE,44,5.0,6.0,96,0.00,,,0.00,0.000000,,2013-01-21 08:53:00,
2013-01-21 04:03:00,29.0,28.0,30.30,NE,44,5.0,6.0,96,0.00,,,0.00,0.000000,,2013-01-21 09:03:00,
2013-01-21 04:12:00,29.0,28.0,30.30,NE,44,5.0,6.0,96,0.00,,,0.00,0.000000,,2013-01-21 09:12:00,
2013-01-21 04:43:00,28.0,27.0,30.29,ENE,71,2.0,3.0,95,0.00,,,0.00,0.000000,,2013-01-21 09:43:00,
2013-01-21 04:53:00,28.0,27.0,30.29,ENE,71,2.0,3.0,95,0.00,,,0.00,0.000000,,2013-01-21 09:53:00,
2013-01-21 05:03:00,28.0,27.0,30.29,ENE,71,2.0,3.0,95,0.00,,,0.00,0.000000,,2013-01-21 10:03:00,
2013-01-21 05:12:00,28.0,27.0,30.29,ENE,71,2.0,3.0,95,0.00,,,0.00,0.000000,,2013-01-21 10:12:00,
2013-01-21 05:43:00,28.0,27.0,30.29,NNE,25,5.0,7.0,96,0.00,,,0.00,0.000000,,2013-01-21 10:43:00,
2013-01-21 05:53:00,28.0,27.0,30.29,NNE,25,5.0,7.0,96,0.00,,,0.00,0.000000,,2013-01-21 10:53:00,
2013-01-21 06:03:00,28.0,27.0,30.29,NNE,25,5.0,7.0,96,0.00,,,0.00,0.000000,,2013-01-21 11:03:00,
2013-01-21 06:13:00,28.0,27.0,30.29,NNE,25,5.0,7.0,96,0.00,,,0.00,0.000000,,2013-01-21 11:13:00,
2013-01-21 06:43:00,27.0,26.0,30.29,NE,35,2.0,5.0,95,0.00,,,0.00,0.000000,,2013-01-21 11:43:00,
2013-01-21 06:53:00,27.0,26.0,30.29,NE,35,2.0,5.0,95,0.00,,,0.00,0.000000,,2013-01-21 11:53:00,
2013-01-21 07:03:00,27.0,26.0,30.29,NE,35,2.0,5.0,95,0.00,,,0.00,0.000000,,2013-01-21 12:03:00,
2013-01-21 07:12:00,27.0,26.0,30.29,NE,35,2.0,5.0,95,0.00,,,0.00,0.000000,,2013-01-21 12:12:00,
2013-01-21 07:43:00,27.0,26.0,30.29,NW,315,2.0,4.0,95,0.00,,,0.00,0.000000,,2013-01-21 12:43:00,
2013-01-21 07:53:00,27.0,26.0,30.29,NW,315,2.0,4.0,95,0.00,,,0.00,0.000000,,2013-01-21 12:53:00,
2013-01-21 08:03:00,27.0,26.0,30.29,NW,315,2.0,4.0,95,0.00,,,0.00,0.000000,,2013-01-21 13:03:00,
2013-01-21 08:13:00,27.0,26.0,30.29,NW,315,2.0,4.0,95,0.00,,,0.00,0.000000,,2013-01-21 13:13:00,
2013-01-21 08:43:00,30.0,28.0,30.28,SSE,152,5.0,8.0,93,0.00,,,0.00,7.000000,,2013-01-21 13:43:00,
2013-01-21 08:54:00,30.0,28.0,30.28,SSE,152,5.0,8.0,93,0.00,,,0.00,7.000000,,2013-01-21 13:54:00,
2013-01-21 09:04:00,30.0,28.0,30.28,SSE,152,5.0,8.0,93,0.00,,,0.00,7.000000,,2013-01-21 14:04:00,
2013-01-21 09:13:00,30.0,28.0,30.28,SSE,152,5.0,8.0,93,0.00,,,0.00,7.000000,,2013-01-21 14:13:00,
2013-01-21 09:33:00,41.0,33.0,30.30,WSW,238,2.0,11.0,73,0.00,,,0.00,174.000000,,2013-01-21 14:33:00,
2013-01-21 09:43:00,41.0,33.0,30.30,WSW,238,2.0,11.0,73,0.00,,,0.00,174.000000,,2013-01-21 14:43:00,
2013-01-21 09:54:00,41.0,33.0,30.30,WSW,238,2.0,11.0,73,0.00,,,0.00,174.000000,,2013-01-21 14:54:00,
2013-01-21 10:03:00,41.0,33.0,30.30,WSW,238,2.0,11.0,73,0.00,,,0.00,174.000000,,2013-01-21 15:03:00,
2013-01-21 10:13:00,41.0,33.0,30.30,WSW,238,2.0,11.0,73,0.00,,,0.00,174.000000,,2013-01-21 15:13:00,
2013-01-21 10:33:00,50.0,32.0,30.30,SSW,210,2.0,7.0,50,0.00,,,0.00,354.000000,,2013-01-21 15:33:00,
2013-01-21 10:43:00,50.0,32.0,30.30,SSW,210,2.0,7.0,50,0.00,,,0.00,354.000000,,2013-01-21 15:43:00,
2013-01-21 10:53:00,50.0,32.0,30.30,SSW,210,2.0,7.0,50,0.00,,,0.00,354.000000,,2013-01-21 15:53:00,
2013-01-21 11:04:00,50.0,32.0,30.30,SSW,210,2.0,7.0,50,0.00,,,0.00,354.000000,,2013-01-21 16:04:00,
2013-01-21 11:13:00,50.0,32.0,30.30,SSW,210,2.0,7.0,50,0.00,,,0.00,354.000000,,2013-01-21 16:13:00,
2013-01-21 11:33:00,50.0,29.0,30.29,South,186,5.0,10.0,44,0.00,,,0.00,377.000000,,2013-01-21 16:33:00,
2013-01-21 11:44:00,50.0,29.0,30.29,South,186,5.0,10.0,44,0.00,,,0.00,377.000000,,2013-01-21 16:44:00,
2013-01-21 11:53:00,50.0,29.0,30.29,South,186,5.0,10.0,44,0.00,,,0.00,377.000000,,2013-01-21 16:53:00,
2013-01-21 12:03:00,50.0,29.0,30.29,South,186,5.0,10.0,44,0.00,,,0.00,377.000000,,2013-01-21 17:03:00,
2013-01-21 12:13:00,50.0,29.0,30.29,South,186,5.0,10.0,44,0.00,,,0.00,377.000000,,2013-01-21 17:13:00,
2013-01-21 12:43:00,56.0,31.0,30.25,SSW,211,4.0,12.0,38,0.00,,,0.00,206.000000,,2013-01-21 17:43:00,
2013-01-21 12:53:00,56.0,31.0,30.25,SSW,211,4.0,12.0,38,0.00,,,0.00,206.000000,,2013-01-21 17:53:00,
2013-01-21 13:03:00,56.0,31.0,30.25,SSW,211,4.0,12.0,38,0.00,,,0.00,206.000000,,2013-01-21 18:03:00,
2013-01-21 13:12:00,56.0,31.0,30.25,SSW,211,4.0,12.0,38,0.00,,,0.00,206.000000,,2013-01-21 18:12:00,
2013-01-21 13:33:00,57.0,26.0,30.19,SSW,206,11.0,18.0,30,0.00,,,0.00,524.000000,,2013-01-21 18:33:00,
2013-01-21 13:43:00,57.0,26.0,30.19,SSW,206,11.0,18.0,30,0.00,,,0.00,524.000000,,2013-01-21 18:43:00,
2013-01-21 13:53:00,57.0,26.0,30.19,SSW,206,11.0,18.0,30,0.00,,,0.00,524.000000,,2013-01-21 18:53:00,
2013-01-21 14:03:00,57.0,26.0,30.19,SSW,206,11.0,18.0,30,0.00,,,0.00,524.000000,,2013-01-21 19:03:00,
2013-01-21 14:13:00,57.0,26.0,30.19,SSW,206,11.0,18.0,30,0.00,,,0.00,524.000000,,2013-01-21 19:13:00,
2013-01-21 14:43:00,60.0,24.0,30.16,WSW,239,10.0,21.0,25,0.00,,,0.00,554.000000,,2013-01-21 19:43:00,
2013-01-21 14:53:00,60.0,24.0,30.16,WSW,239,10.0,21.0,25,0.00,,,0.00,554.000000,,2013-01-21 19:53:00,
2013-01-21 15:04:00,60.0,24.0,30.16,WSW,239,10.0,21.0,25,0.00,,,0.00,554.000000,,2013-01-21 20:04:00,
2013-01-21 15:12:00,60.0,24.0,30.16,WSW,239,10.0,21.0,25,0.00,,,0.00,554.000000,,2013-01-21 20:12:00,
2013-01-21 15:43:00,60.0,25.0,30.15,SW,230,11.0,23.0,26,0.00,,,0.00,524.000000,,2013-01-21 20:43:00,
2013-01-21 15:53:00,60.0,25.0,30.15,SW,230,11.0,23.0,26,0.00,,,0.00,524.000000,,2013-01-21 20:53:00,
2013-01-21 16:04:00,60.0,25.0,30.15,SW,230,11.0,23.0,26,0.00,,,0.00,524.000000,,2013-01-21 21:04:00,
2013-01-21 16:12:00,60.0,25.0,30.15,SW,230,11.0,23.0,26,0.00,,,0.00,524.000000,,2013-01-21 21:12:00,
2013-01-21 16:33:00,59.0,24.0,30.13,SW,222,14.0,25.0,26,0.00,,,0.00,372.000000,,2013-01-21 21:33:00,
2013-01-21 16:43:00,59.0,24.0,30.13,SW,222,14.0,25.0,26,0.00,,,0.00,372.000000,,2013-01-21 21:43:00,
2013-01-21 16:54:00,59.0,24.0,30.13,SW,222,14.0,25.0,26,0.00,,,0.00,372.000000,,2013-01-21 21:54:00,
2013-01-21 17:03:00,59.0,24.0,30.13,SW,222,14.0,25.0,26,0.00,,,0.00,372.000000,,2013-01-21 22:03:00,
2013-01-21 17:13:00,59.0,24.0,30.13,SW,222,14.0,25.0,26,0.00,,,0.00,372.000000,,2013-01-21 22:13:00,
2013-01-21 17:33:00,55.0,23.0,30.14,ENE,59,10.0,33.0,29,0.00,,,0.00,179.000000,,2013-01-21 22:33:00,
2013-01-21 17:43:00,55.0,23.0,30.14,ENE,59,10.0,33.0,29,0.00,,,0.00,179.000000,,2013-01-21 22:43:00,
2013-01-21 17:53:00,55.0,23.0,30.14,ENE,59,10.0,33.0,29,0.00,,,0.00,179.000000,,2013-01-21 22:53:00,
2013-01-21 18:03:00,55.0,23.0,30.14,ENE,59,10.0,33.0,29,0.00,,,0.00,179.000000,,2013-01-21 23:03:00,
2013-01-21 18:13:00,55.0,23.0,30.14,ENE,59,10.0,33.0,29,0.00,,,0.00,179.000000,,2013-01-21 23:13:00,
2013-01-21 18:33:00,52.0,19.0,30.16,WNW,282,11.0,29.0,27,0.00,,,0.00,9.000000,,2013-01-21 23:33:00,
2013-01-21 18:43:00,52.0,19.0,30.16,WNW,282,11.0,29.0,27,0.00,,,0.00,9.000000,,2013-01-21 23:43:00,
2013-01-21 18:53:00,52.0,19.0,30.16,WNW,282,11.0,29.0,27,0.00,,,0.00,9.000000,,2013-01-21 23:53:00,
2013-01-21 19:03:00,52.0,19.0,30.16,WNW,282,11.0,29.0,27,0.00,,,0.00,9.000000,,2013-01-22 00:03:00,
2013-01-21 19:12:00,52.0,19.0,30.16,WNW,282,11.0,29.0,27,0.00,,,0.00,9.000000,,2013-01-22 00:12:00,
2013-01-21 19:33:00,48.0,16.0,30.18,WNW,285,12.0,30.0,28,0.00,,,0.00,0.000000,,2013-01-22 00:33:00,
2013-01-21 19:43:00,48.0,16.0,30.18,WNW,285,12.0,30.0,28,0.00,,,0.00,0.000000,,2013-01-22 00:43:00,
2013-01-21 19:53:00,48.0,16.0,30.18,WNW,285,12.0,30.0,28,0.00,,,0.00,0.000000,,2013-01-22 00:53:00,
2013-01-21 20:02:00,48.0,16.0,30.18,WNW,285,12.0,30.0,28,0.00,,,0.00,0.000000,,2013-01-22 01:02:00,
2013-01-21 20:12:00,48.0,16.0,30.18,WNW,285,12.0,30.0,28,0.00,,,0.00,0.000000,,2013-01-22 01:12:00,
2013-01-21 20:43:00,43.0,14.0,30.20,West,278,8.0,20.0,31,0.00,,,0.00,0.000000,,2013-01-22 01:43:00,
2013-01-21 20:53:00,43.0,14.0,30.20,West,278,8.0,20.0,31,0.00,,,0.00,0.000000,,2013-01-22 01:53:00,
2013-01-21 21:03:00,43.0,14.0,30.20,West,278,8.0,20.0,31,0.00,,,0.00,0.000000,,2013-01-22 02:03:00,
2013-01-21 21:12:00,43.0,14.0,30.20,West,278,8.0,20.0,31,0.00,,,0.00,0.000000,,2013-01-22 02:12:00,
2013-01-21 21:33:00,40.0,13.0,30.20,West,260,5.0,14.0,33,0.00,,,0.00,0.000000,,2013-01-22 02:33:00,
2013-01-21 21:43:00,40.0,13.0,30.20,West,260,5.0,14.0,33,0.00,,,0.00,0.000000,,2013-01-22 02:43:00,
2013-01-21 21:53:00,40.0,13.0,30.20,West,260,5.0,14.0,33,0.00,,,0.00,0.000000,,2013-01-22 02:53:00,
2013-01-21 22:03:00,40.0,13.0,30.20,West,260,5.0,14.0,33,0.00,,,0.00,0.000000,,2013-01-22 03:03:00,
2013-01-21 22:12:00,40.0,13.0,30.20,West,260,5.0,14.0,33,0.00,,,0.00,0.000000,,2013-01-22 03:12:00,
2013-01-21 22:43:00,40.0,13.0,30.21,WSW,256,7.0,20.0,33,0.00,,,0.00,0.000000,,2013-01-22 03:43:00,
2013-01-21 22:53:00,40.0,13.0,30.21,WSW,256,7.0,20.0,33,0.00,,,0.00,0.000000,,2013-01-22 03:53:00,
2013-01-21 23:03:00,40.0,13.0,30.21,WSW,256,7.0,20.0,33,0.00,,,0.00,0.000000,,2013-01-22 04:03:00,
2013-01-21 23:12:00,40.0,13.0,30.21,WSW,256,7.0,20.0,33,0.00,,,0.00,0.000000,,2013-01-22 04:12:00,
2013-01-21 23:33:00,38.0,12.0,30.21,WSW,250,6.0,13.0,34,0.00,,,0.00,0.000000,,2013-01-22 04:33:00,
2013-01-21 23:43:00,38.0,12.0,30.21,WSW,250,6.0,13.0,34,0.00,,,0.00,0.000000,,2013-01-22 04:43:00,
2013-01-21 23:53:00,38.0,12.0,30.21,WSW,250,6.0,13.0,34,0.00,,,0.00,0.000000,,2013-01-22 04:53:00,